Location: Banff
(51.1667°N, 115.5667°W)
Time: 13:35:23
(UTC+00:00)

Vanguard 1 Rocket - Pass Details

Date: 03 December 2020
Orbit: 655 x 4222 km, 34.3° (Epoch: 23 January)

Event Time Altitude Azimuth Distance (km) Brightness Sun altitude
Rises 07:13:34 0° 218° (SW) 7,767 - -60.8°
Reaches altitude 10° 07:19:08 10° 211° (SSW) 7,053 - -60.9°
Maximum altitude 07:40:56 39° 154° (SSE) 5,300 - -61.0°
Exits shadow 07:54:20 23° 108° (ESE) 5,738 11.2 -60.7°
Drops below altitude 10° 08:00:16 10° 96° (E) 6,355 11.7 -60.5°
Sets 08:04:51 0° 89° (E) 6,973 12.0 -60.3°
